When you browse on this site, cookies collect data to enhance your experience and personalize the content and advertising you see.
Visit our Privacy Policy to learn more. By continuing to use the site, you agree to this use of cookies and data.
  • In United Kingdom
  • List of Countries
  • For 7 days
  • Water Temperature
  • Weather Map
  • Weather Widgets
  • user-avatar
    Login

    Hourly Weather Graz

    Today, 2 April, Thursday

    Time Temperature Precipitation Wind Pressure Humidity
    00:00 -1°C° 0 mm 0 mps 724 mmHg 59%
    01:00 0°C° 0 mm 1 mps 724 mmHg 59%
    02:00 0°C° 0 mm 1 mps 723 mmHg 59%
    03:00 0°C° 0 mm 1 mps 723 mmHg 59%
    04:00 0°C° 0 mm 1 mps 723 mmHg 60%
    05:00 0°C° 0 mm 0 mps 723 mmHg 56%
    06:00 +1°C° 0 mm 0 mps 723 mmHg 53%
    07:00 +2°C° 0 mm 0 mps 723 mmHg 48%
    08:00 +4°C° 0 mm 0 mps 723 mmHg 42%
    09:00 +7°C° 0 mm 1 mps 722 mmHg 37%
    10:00 +9°C° 0 mm 1 mps 722 mmHg 32%
    11:00 +10°C° 0 mm 1 mps 722 mmHg 31%
    12:00 +10°C° 0 mm 2 mps 722 mmHg 30%
    13:00 +12°C° 0 mm 2 mps 721 mmHg 29%
    14:00 +12°C° 0 mm 2 mps 721 mmHg 31%
    15:00 +10°C° 0 mm 2 mps 720 mmHg 33%
    16:00 +10°C° 0 mm 2 mps 719 mmHg 35%
    17:00 +9°C° 0 mm 1 mps 719 mmHg 44%
    18:00 +6°C° 0 mm 1 mps 719 mmHg 53%
    19:00 +3°C° 0 mm 0 mps 719 mmHg 61%
    20:00 +4°C° 0 mm 1 mps 719 mmHg 62%
    21:00 +3°C° 0 mm 1 mps 720 mmHg 63%
    22:00 +3°C° 0 mm 1 mps 720 mmHg 64%
    23:00 +3°C° 0 mm 1 mps 720 mmHg 65%

    Tomorrow, 3 April, Friday

    Time Temperature Precipitation Wind Pressure Humidity
    00:00 +2°C° 0 mm 1 mps 720 mmHg 66%
    01:00 +2°C° 0 mm 1 mps 720 mmHg 67%
    02:00 +2°C° 0 mm 1 mps 720 mmHg 68%
    03:00 +2°C° 0 mm 1 mps 720 mmHg 68%
    04:00 +2°C° 0 mm 1 mps 720 mmHg 69%
    05:00 +3°C° 0 mm 1 mps 720 mmHg 67%
    06:00 +4°C° 0 mm 1 mps 721 mmHg 65%
    07:00 +5°C° 0 mm 1 mps 721 mmHg 63%
    08:00 +8°C° 0 mm 1 mps 722 mmHg 56%
    09:00 +11°C° 0 mm 1 mps 722 mmHg 49%
    10:00 +13°C° 0 mm 0 mps 722 mmHg 42%
    11:00 +14°C° 0 mm 1 mps 722 mmHg 41%
    12:00 +14°C° 0 mm 1 mps 722 mmHg 41%
    13:00 +15°C° 0 mm 1 mps 722 mmHg 41%
    14:00 +14°C° 0.1 mm 1 mps 722 mmHg 44%
    15:00 +14°C° 0.1 mm 1 mps 722 mmHg 47%
    16:00 +13°C° 0.1 mm 1 mps 721 mmHg 50%
    17:00 +12°C° 0.1 mm 1 mps 722 mmHg 58%
    18:00 +10°C° 0.1 mm 1 mps 722 mmHg 66%
    19:00 +9°C° 0.1 mm 1 mps 723 mmHg 73%
    20:00 +8°C° 0 mm 1 mps 723 mmHg 76%
    21:00 +8°C° 0 mm 1 mps 724 mmHg 79%
    22:00 +7°C° 0 mm 1 mps 725 mmHg 82%
    23:00 +7°C° 0 mm 1 mps 725 mmHg 83%

    Day after tomorrow, 4 April, Saturday

    Time Temperature Precipitation Wind Pressure Humidity
    00:00 +6°C° 0 mm 1 mps 725 mmHg 84%
    01:00 +6°C° 0 mm 1 mps 726 mmHg 85%
    02:00 +6°C° 0 mm 1 mps 726 mmHg 86%
    03:00 +5°C° 0 mm 1 mps 726 mmHg 86%
    04:00 +5°C° 0 mm 1 mps 726 mmHg 86%
    05:00 +5°C° 0 mm 1 mps 727 mmHg 84%
    06:00 +6°C° 0 mm 1 mps 727 mmHg 81%
    07:00 +6°C° 0 mm 1 mps 728 mmHg 79%
    08:00 +8°C° 0 mm 1 mps 728 mmHg 71%
    09:00 +11°C° 0 mm 1 mps 728 mmHg 64%
    10:00 +13°C° 0 mm 1 mps 729 mmHg 56%
    11:00 +13°C° 0 mm 1 mps 729 mmHg 54%
    12:00 +14°C° 0 mm 1 mps 729 mmHg 51%
    13:00 +14°C° 0 mm 1 mps 729 mmHg 49%
    14:00 +14°C° 0 mm 1 mps 729 mmHg 50%
    15:00 +13°C° 0 mm 1 mps 728 mmHg 52%
    16:00 +13°C° 0 mm 2 mps 728 mmHg 53%
    17:00 +11°C° 0 mm 1 mps 729 mmHg 61%
    18:00 +10°C° 0 mm 1 mps 729 mmHg 69%
    19:00 +8°C° 0 mm 1 mps 729 mmHg 77%
    20:00 +8°C° 0 mm 1 mps 730 mmHg 78%
    21:00 +7°C° 0 mm 1 mps 731 mmHg 79%
    22:00 +7°C° 0 mm 1 mps 731 mmHg 80%
    23:00 +6°C° 0 mm 1 mps 731 mmHg 79%

    5 April, Sunday

    Time Temperature Precipitation Wind Pressure Humidity
    00:00 +5°C° 0 mm 0 mps 732 mmHg 79%
    01:00 +4°C° 0 mm 0 mps 732 mmHg 79%
    02:00 +4°C° 0 mm 0 mps 732 mmHg 79%
    03:00 +3°C° 0 mm 0 mps 732 mmHg 79%
    04:00 +3°C° 0 mm 0 mps 732 mmHg 78%
    05:00 +4°C° 0 mm 0 mps 732 mmHg 75%
    06:00 +4°C° 0 mm 0 mps 732 mmHg 73%
    07:00 +5°C° 0 mm 0 mps 732 mmHg 70%
    08:00 +8°C° 0 mm 1 mps 732 mmHg 63%
    09:00 +10°C° 0 mm 1 mps 732 mmHg 57%
    10:00 +10°C° 0 mm 2 mps 732 mmHg 50%
    11:00 +12°C° 0 mm 2 mps 732 mmHg 47%
    12:00 +13°C° 0 mm 2 mps 732 mmHg 44%
    13:00 +14°C° 0 mm 2 mps 732 mmHg 41%
    14:00 +14°C° 0 mm 2 mps 731 mmHg 41%
    15:00 +14°C° 0 mm 2 mps 731 mmHg 41%
    16:00 +14°C° 0 mm 2 mps 730 mmHg 41%
    17:00 +12°C° 0 mm 1 mps 730 mmHg 49%
    18:00 +10°C° 0 mm 1 mps 731 mmHg 57%
    19:00 +8°C° 0 mm 1 mps 731 mmHg 65%
    20:00 +7°C° 0 mm 1 mps 731 mmHg 66%
    21:00 +6°C° 0 mm 1 mps 731 mmHg 67%
    22:00 +5°C° 0 mm 0 mps 732 mmHg 69%
    23:00 +4°C° 0 mm 0 mps 732 mmHg 68%

    6 April, Monday

    Time Temperature Precipitation Wind Pressure Humidity
    00:00 +4°C° 0 mm 0 mps 732 mmHg 68%
    01:00 +4°C° 0 mm 0 mps 732 mmHg 68%
    02:00 +4°C° 0 mm 0 mps 732 mmHg 70%
    03:00 +4°C° 0 mm 0 mps 731 mmHg 72%
    04:00 +3°C° 0 mm 0 mps 731 mmHg 74%
    05:00 +4°C° 0 mm 0 mps 732 mmHg 73%
    06:00 +5°C° 0 mm 0 mps 732 mmHg 71%
    07:00 +6°C° 0 mm 0 mps 732 mmHg 70%
    08:00 +9°C° 0 mm 1 mps 732 mmHg 64%
    09:00 +10°C° 0 mm 2 mps 732 mmHg 59%
    10:00 +12°C° 0 mm 2 mps 732 mmHg 53%
    11:00 +12°C° 0 mm 3 mps 732 mmHg 49%
    12:00 +13°C° 0 mm 3 mps 732 mmHg 44%
    13:00 +14°C° 0 mm 4 mps 732 mmHg 40%
    14:00 +13°C° 0 mm 3 mps 731 mmHg 40%
    15:00 +13°C° 0 mm 3 mps 731 mmHg 40%
    16:00 +13°C° 0 mm 3 mps 731 mmHg 40%
    17:00 +12°C° 0 mm 2 mps 731 mmHg 48%
    18:00 +9°C° 0 mm 2 mps 731 mmHg 56%
    19:00 +7°C° 0 mm 1 mps 732 mmHg 64%
    20:00 +7°C° 0 mm 1 mps 732 mmHg 66%
    21:00 +6°C° 0 mm 1 mps 733 mmHg 68%
    22:00 +5°C° 0 mm 1 mps 733 mmHg 70%
    23:00 +5°C° 0 mm 1 mps 733 mmHg 70%

    7 April, Tuesday

    Time Temperature Precipitation Wind Pressure Humidity
    00:00 +4°C° 0 mm 1 mps 733 mmHg 71%
    01:00 +4°C° 0 mm 1 mps 733 mmHg 71%
    02:00 +4°C° 0 mm 1 mps 733 mmHg 71%
    03:00 +3°C° 0 mm 1 mps 733 mmHg 72%
    04:00 +3°C° 0 mm 1 mps 734 mmHg 72%
    05:00 +4°C° 0 mm 1 mps 734 mmHg 68%
    06:00 +5°C° 0 mm 1 mps 734 mmHg 64%
    07:00 +5°C° 0 mm 0 mps 734 mmHg 60%
    08:00 +8°C° 0 mm 1 mps 734 mmHg 54%
    09:00 +10°C° 0 mm 1 mps 734 mmHg 47%
    10:00 +12°C° 0 mm 1 mps 734 mmHg 40%
    11:00 +13°C° 0 mm 2 mps 734 mmHg 38%
    12:00 +14°C° 0 mm 2 mps 734 mmHg 36%
    13:00 +15°C° 0 mm 2 mps 734 mmHg 34%
    14:00 +15°C° 0 mm 2 mps 734 mmHg 34%
    15:00 +15°C° 0 mm 2 mps 734 mmHg 34%
    16:00 +15°C° 0 mm 2 mps 734 mmHg 34%
    17:00 +12°C° 0 mm 1 mps 734 mmHg 42%
    18:00 +10°C° 0 mm 1 mps 734 mmHg 50%
    19:00 +7°C° 0 mm 1 mps 734 mmHg 57%
    20:00 +6°C° 0 mm 0 mps 734 mmHg 59%
    21:00 +5°C° 0 mm 0 mps 734 mmHg 61%
    22:00 +5°C° 0 mm 0 mps 735 mmHg 62%
    23:00 +4°C° 0 mm 0 mps 735 mmHg 64%
    Show more